2019-160T04:25:15.118,   1, 180,   1,    60,   4,          0,     41.614,  99294.559,    86.025,   -26.472,     1.088,    91.394, 2, 5.486E-04, -1.00,   2,  2.682E-03,  1.365E-04,  9.548E-15,  2.355E-14,  2.222E+01,  5.480E+01, 255
2019-160T04:26:15.118,   1, 180,   1,    60,   4,          0,     41.614,  99294.559,    86.028,   -26.472,     1.088,    90.789, 2, 5.486E-04, -1.00,   2,  2.648E-03,  1.368E-04,  8.042E-14,  2.427E-14,  1.895E+02,  5.720E+01, 255
2019-160T04:27:15.119,   1, 180,   1,    60,   4,          0,     41.614,  99294.559,    86.030,   -26.471,     1.088,    90.185, 2, 5.486E-04, -1.00,   2,  2.812E-03,  1.407E-04,  1.240E-13,  2.452E-14,  2.752E+02,  5.443E+01, 255
2019-160T04:53:15.137,   1, 180,   1,    60,   4,          0,     41.614,  99294.559,    86.098,   -26.461,     1.087,    74.464, 2, 5.486E-04, -1.00,   2,  2.540E-03,  1.381E-04,  9.193E-14,  2.497E-14,  2.259E+02,  6.137E+01, 255
2019-160T04:54:15.138,   1, 180,   1,    60,   4,          0,     41.614,  99294.559,    86.100,   -26.461,     1.087,    73.859, 2, 5.486E-04, -1.00,   2,  2.433E-03,  1.373E-04,  6.917E-14,  2.463E-14,  1.774E+02,  6.318E+01, 255
2019-160T04:55:15.138,   1, 180,   1,    60,   4,          0,     41.614,  99294.559,    86.103,   -26.460,     1.087,    73.255, 2, 5.486E-04, -1.00,   2,  2.210E-03,  1.338E-04,  3.016E-14,  2.426E-14,  8.519E+01,  6.854E+01, 255
2019-160T05:08:15.147,   1, 180,   1,    60,   4,          0,     41.614,  99294.559,    86.136,   -26.455,     1.087,    65.394, 2, 5.486E-04, -1.00,   2,  2.881E-03,  1.459E-04,  6.851E-14,  2.394E-14,  1.484E+02,  5.187E+01, 255
2019-160T05:09:15.148,   1, 180,   1,    60,   4,          0,     41.614,  99294.559,    86.139,   -26.455,     1.087,    64.790, 2, 5.486E-04, -1.00,   2,  2.662E-03,  1.366E-04,  2.079E-14,  2.325E-14,  4.874E+01,  5.452E+01, 255
2019-160T05:10:15.149,   1, 180,   1,    60,   4,          0,     41.614,  99294.559,    86.141,   -26.454,     1.087,    64.185, 2, 5.486E-04, -1.00,   2,  2.750E-03,  1.386E-04,  7.533E-15,  2.321E-14,  1.710E+01,  5.269E+01, 255
2019-160T05:36:15.166,   1, 180,   1,    60,   4,          0,     41.614,  99294.559,    86.208,   -26.444,     1.087,    48.465, 2, 5.486E-04, -1.00,   2,  2.451E-03,  1.361E-04,  1.669E-13,  2.507E-14,  4.249E+02,  6.385E+01, 255
2019-160T05:37:15.167,   1, 180,   1,    60,   4,          0,     41.614,  99294.559,    86.211,   -26.444,     1.087,    47.860, 2, 5.486E-04, -1.00,   2,  2.645E-03,  1.379E-04,  7.498E-14,  2.375E-14,  1.769E+02,  5.604E+01, 255
2019-160T05:38:15.168,   1, 180,   1,    60,   4,          0,     41.614,  99294.559,    86.213,   -26.443,     1.087,    47.255, 2, 5.486E-04, -1.00,   2,  2.770E-03,  1.408E-04,  1.761E-14,  2.408E-14,  3.968E+01,  5.424E+01, 255
2019-160T05:39:15.168,   1, 180,   1,    60,   4,          0,     41.614,  99294.559,    86.216,   -26.443,     1.087,    46.651, 2, 5.486E-04, -1.00,   2,  2.528E-03,  1.352E-04,  5.472E-14,  2.385E-14,  1.351E+02,  5.888E+01, 255
2019-160T05:41:15.170,   1, 180,   1,    60,   4,          0,     41.614,  99294.559,    86.221,   -26.442,     1.087,    45.441, 2, 5.486E-04, -1.00,   2,  2.582E-03,  1.400E-04,  1.628E-13,  2.526E-14,  3.934E+02,  6.106E+01, 255
2019-160T05:42:15.171,   1, 180,   1,    60,   4,          0,     41.614,  99294.559,    86.224,   -26.442,     1.087,    44.837, 2, 5.486E-04, -1.00,   2,  2.815E-03,  1.379E-04,  1.124E-13,  2.408E-14,  2.493E+02,  5.339E+01, 255
2019-160T05:43:15.171,   1, 180,   1,    60,   4,          0,     41.614,  99294.559,    86.226,   -26.441,     1.087,    44.232, 2, 5.486E-04, -1.00,   2,  2.447E-03,  1.359E-04,  4.510E-14,  2.368E-14,  1.151E+02,  6.041E+01, 255
2019-160T05:44:15.172,   1, 180,   1,    60,   4,          0,     41.614,  99294.559,    86.229,   -26.441,     1.087,    43.627, 2, 5.486E-04, -1.00,   2,  2.715E-03,  1.405E-04,  1.866E-13,  2.448E-14,  4.289E+02,  5.628E+01, 255
2019-160T06:44:15.213,   1, 180,   1,    60,   4,          0,     41.614,  99294.559,    86.382,   -26.417,     1.086,     7.349, 2, 5.486E-04, -1.00,   2,  2.324E-03,  1.355E-04,  7.134E-14,  2.432E-14,  1.916E+02,  6.530E+01, 255
2019-160T06:45:15.214,   1, 180,   1,    60,   4,          0,     41.614,  99294.559,    86.385,   -26.417,     1.086,     6.744, 2, 5.486E-04, -1.00,   2,  2.408E-03,  1.363E-04,  4.690E-14,  2.373E-14,  1.215E+02,  6.151E+01, 255
2019-160T06:46:15.214,   1, 180,   1,    60,   4,          0,     41.614,  99294.559,    86.388,   -26.417,     1.086,     6.140, 2, 5.486E-04, -1.00,   2,  2.467E-03,  1.360E-04,  5.455E-14,  2.384E-14,  1.380E+02,  6.030E+01, 255
2019-160T07:27:15.242,   1, 180,   1,    60,   4,          0,     41.614,  99294.559,    86.492,   -26.401,     1.086,   341.350, 2, 5.486E-04, -1.00,   2,  2.595E-03,  1.417E-04,  7.118E-14,  2.452E-14,  1.712E+02,  5.898E+01, 255
2019-160T07:28:15.243,   1, 180,   1,    60,   4,          0,     41.614,  99294.559,    86.495,   -26.400,     1.086,   340.745, 2, 5.486E-04, -1.00,   2,  2.398E-03,  1.329E-04,  8.461E-14,  2.373E-14,  2.202E+02,  6.175E+01, 255
2019-160T07:29:15.244,   1, 180,   1,    60,   4,          0,     41.614,  99294.559,    86.497,   -26.400,     1.086,   340.140, 2, 5.486E-04, -1.00,   2,  2.707E-03,  1.425E-04,  1.112E-15,  2.348E-14,  2.564E+00,  5.413E+01, 255
2019-160T07:30:15.245,   1, 180,   1,    60,   4,          0,     41.614,  99294.559,    86.500,   -26.400,     1.086,   339.536, 2, 5.486E-04, -1.00,   2,  2.297E-03,  1.311E-04,  1.745E-15,  2.350E-14,  4.739E+00,  6.384E+01, 255
2019-160T08:26:15.283,   1, 180,   1,    60,   4,          0,     41.614,  99294.559,    86.643,   -26.378,     1.086,   305.676, 2, 5.486E-04, -1.00,   2,  2.577E-03,  1.362E-04,  4.263E-14,  2.345E-14,  1.032E+02,  5.678E+01, 255
2019-160T08:27:15.284,   1, 180,   1,    60,   4,          0,     41.614,  99294.559,    86.645,   -26.377,     1.086,   305.071, 2, 5.486E-04, -1.00,   2,  2.238E-03,  1.304E-04,  1.195E-13,  2.454E-14,  3.333E+02,  6.842E+01, 255
2019-160T08:28:15.284,   1, 180,   1,    60,   4,          0,     41.614,  99294.559,    86.648,   -26.377,     1.086,   304.467, 2, 5.486E-04, -1.00,   2,  2.507E-03,  1.355E-04,  3.170E-14,  2.370E-14,  7.892E+01,  5.900E+01, 255
2019-160T08:33:15.288,   1, 180,   1,    60,   4,          0,     41.614,  99294.559,    86.660,   -26.375,     1.086,   301.443, 2, 5.486E-04, -1.00,   2,  2.291E-03,  1.356E-04,  8.437E-15,  2.430E-14,  2.299E+01,  6.622E+01, 255
2019-160T08:34:15.288,   1, 180,   1,    60,   4,          0,     41.614,  99294.559,    86.663,   -26.375,     1.085,   300.839, 2, 5.486E-04, -1.00,   2,  2.517E-03,  1.402E-04,  3.624E-14,  2.392E-14,  8.986E+01,  5.931E+01, 255
2019-160T08:35:15.289,   1, 180,   1,    60,   4,          0,     41.614,  99294.559,    86.665,   -26.374,     1.085,   300.234, 2, 5.486E-04, -1.00,   2,  2.432E-03,  1.352E-04,  8.605E-14,  2.414E-14,  2.208E+02,  6.196E+01, 255
2019-160T08:41:15.293,   1, 180,   1,    60,   4,          0,     41.614,  99294.559,    86.681,   -26.372,     1.085,   296.606, 2, 5.486E-04, -1.00,   2,  2.544E-03,  1.361E-04,  1.334E-14,  2.393E-14,  3.273E+01,  5.872E+01, 255
2019-160T08:42:15.294,   1, 180,   1,    60,   4,          0,     41.614,  99294.559,    86.683,   -26.372,     1.085,   296.002, 2, 5.486E-04, -1.00,   2,  2.399E-03,  1.354E-04,  1.050E-13,  2.452E-14,  2.731E+02,  6.380E+01, 255
2019-160T08:43:15.294,   1, 180,   1,    60,   4,          0,     41.614,  99294.559,    86.686,   -26.371,     1.085,   295.397, 2, 5.486E-04, -1.00,   2,  2.533E-03,  1.383E-04,  1.034E-13,  2.390E-14,  2.548E+02,  5.888E+01, 255
2019-160T09:08:15.312,   1, 180,   1,    60,   4,          0,     41.614,  99294.559,    86.749,   -26.362,     1.085,   280.281, 2, 5.486E-04, -1.00,   2,  2.322E-03,  1.314E-04,  1.708E-14,  2.365E-14,  4.591E+01,  6.358E+01, 255
2019-160T09:09:15.312,   1, 180,   1,    60,   4,          0,     41.614,  99294.559,    86.752,   -26.361,     1.085,   279.676, 2, 5.486E-04, -1.00,   2,  2.538E-03,  1.362E-04,  6.665E-14,  2.407E-14,  1.639E+02,  5.918E+01, 255
2019-160T09:10:15.313,   1, 180,   1,    60,   4,          0,     41.614,  99294.559,    86.754,   -26.361,     1.085,   279.072, 2, 5.486E-04, -1.00,   2,  2.391E-03,  1.295E-04,  1.102E-13,  2.408E-14,  2.876E+02,  6.286E+01, 255
2019-160T09:36:15.331,   1, 180,   1,    60,   4,          0,     41.614,  99294.559,    86.820,   -26.351,     1.085,   263.351, 2, 5.486E-04, -1.00,   2,  2.537E-03,  1.385E-04,  1.056E-13,  2.426E-14,  2.599E+02,  5.968E+01, 255
2019-160T09:37:15.332,   1, 180,   1,    60,   4,          0,     41.614,  99294.559,    86.823,   -26.350,     1.085,   262.747, 2, 5.486E-04, -1.00,   2,  2.418E-03,  1.355E-04,  1.100E-13,  2.421E-14,  2.840E+02,  6.247E+01, 255
2019-160T09:38:15.332,   1, 180,   1,    60,   4,          0,     41.614,  99294.559,    86.825,   -26.350,     1.085,   262.142, 2, 5.486E-04, -1.00,   2,  2.429E-03,  1.371E-04,  1.948E-14,  2.375E-14,  5.006E+01,  6.103E+01, 255
2019-160T09:42:15.335,   1, 180,   1,    60,   4,          0,     41.614,  99294.559,    86.835,   -26.348,     1.085,   259.723, 2, 5.486E-04, -1.00,   2,  2.648E-03,  1.381E-04,  7.581E-14,  2.360E-14,  1.787E+02,  5.564E+01, 255
2019-160T09:43:15.336,   1, 180,   1,    60,   4,          0,     41.614,  99294.559,    86.838,   -26.348,     1.085,   259.119, 2, 5.486E-04, -1.00,   2,  2.607E-03,  1.406E-04,  3.231E-14,  2.395E-14,  7.734E+01,  5.733E+01, 255
2019-160T09:44:15.336,   1, 180,   1,    60,   4,          0,     41.614,  99294.559,    86.840,   -26.348,     1.085,   258.514, 2, 5.486E-04, -1.00,   2,  2.503E-03,  1.364E-04,  6.671E-14,  2.414E-14,  1.664E+02,  6.020E+01, 255
2019-160T13:09:15.477,   1, 180,   1,    60,   4,          0,     41.614,  99294.559,    87.355,   -26.269,     1.083,   134.564, 2, 5.486E-04, -1.00,   2,  2.439E-03,  1.358E-04,  9.838E-14,  2.449E-14,  2.518E+02,  6.268E+01, 255
2019-160T13:10:15.477,   1, 180,   1,    60,   4,          0,     41.614,  99294.559,    87.358,   -26.269,     1.083,   133.959, 2, 5.486E-04, -1.00,   2,  2.534E-03,  1.359E-04,  1.287E-14,  2.337E-14,  3.170E+01,  5.756E+01, 255
2019-160T13:11:15.478,   1, 180,   1,    60,   4,          0,     41.614,  99294.559,    87.360,   -26.268,     1.083,   133.354, 2, 5.486E-04, -1.00,   2,  2.546E-03,  1.357E-04,  3.310E-14,  2.350E-14,  8.114E+01,  5.762E+01, 255
2019-160T13:12:15.479,   1, 180,   1,    60,   4,          0,     41.614,  99294.559,    87.363,   -26.268,     1.083,   132.750, 2, 5.486E-04, -1.00,   2,  2.427E-03,  1.327E-04,  1.011E-13,  2.401E-14,  2.601E+02,  6.175E+01, 255
2019-160T18:50:15.710,   1, 180,   1,    60,   4,          0,     41.614,  99294.559,    88.197,   -26.140,     1.079,   288.383, 2, 5.486E-04, -1.00,   2,  2.222E-03,  1.286E-04,  1.087E-13,  2.420E-14,  3.052E+02,  6.797E+01, 255
2019-160T18:51:15.711,   1, 180,   1,    60,   4,          0,     41.614,  99294.559,    88.199,   -26.140,     1.079,   287.778, 2, 5.486E-04, -1.00,   2,  2.775E-03,  1.345E-04,  1.925E-13,  2.455E-14,  4.328E+02,  5.522E+01, 255
2019-160T18:52:15.712,   1, 180,   1,    60,   4,          0,     41.614,  99294.559,    88.202,   -26.140,     1.079,   287.174, 2, 5.486E-04, -1.00,   2,  2.406E-03,  1.305E-04,  1.207E-13,  2.411E-14,  3.131E+02,  6.253E+01, 255
2019-160T19:26:15.735,   1, 180,   1,    60,   4,          0,     41.614,  99294.559,    88.285,   -26.127,     1.079,   266.616, 2, 5.486E-04, -1.00,   2,  2.454E-03,  1.312E-04,  1.880E-13,  2.409E-14,  4.781E+02,  6.127E+01, 255
2019-160T19:27:15.736,   1, 180,   1,    60,   4,          0,     41.614,  99294.559,    88.287,   -26.127,     1.079,   266.011, 2, 5.486E-04, -1.00,   2,  2.403E-03,  1.306E-04,  1.199E-13,  2.398E-14,  3.115E+02,  6.230E+01, 255
2019-160T19:28:15.736,   1, 180,   1,    60,   4,          0,     41.614,  99294.559,    88.290,   -26.126,     1.079,   265.407, 2, 5.486E-04, -1.00,   2,  2.521E-03,  1.325E-04,  5.286E-14,  2.390E-14,  1.309E+02,  5.917E+01, 255
2019-160T20:10:15.765,   1, 180,   1,    60,   4,          0,     41.614,  99294.559,    88.392,   -26.111,     1.079,   240.012, 2, 5.486E-04, -1.00,   2,  2.319E-03,  1.348E-04,  1.246E-13,  2.476E-14,  3.355E+02,  6.666E+01, 255
2019-160T20:11:15.766,   1, 180,   1,    60,   4,          0,     41.614,  99294.559,    88.394,   -26.110,     1.079,   239.407, 2, 5.486E-04, -1.00,   2,  1.986E-03,  1.258E-04,  1.539E-13,  2.448E-14,  4.838E+02,  7.695E+01, 255
2019-160T20:12:15.766,   1, 180,   1,    60,   4,          0,     41.614,  99294.559,    88.397,   -26.110,     1.079,   238.803, 2, 5.486E-04, -1.00,   2,  2.254E-03,  1.328E-04,  5.008E-15,  2.365E-14,  1.387E+01,  6.551E+01, 255
2019-160T20:13:15.767,   1, 180,   1,    60,   4,          0,     41.614,  99294.559,    88.399,   -26.109,     1.079,   238.198, 2, 5.486E-04, -1.00,   2,  2.353E-03,  1.321E-04,  1.109E-13,  2.404E-14,  2.943E+02,  6.378E+01, 255
2019-160T23:15:15.892,   1, 180,   1,    60,   4,          0,     41.614,  99294.559,    88.838,   -26.042,     1.077,   128.155, 2, 5.486E-04, -1.00,   2,  2.305E-03,  1.298E-04,  1.242E-13,  2.392E-14,  3.361E+02,  6.475E+01, 255
2019-160T23:16:15.892,   1, 180,   1,    60,   4,          0,     41.614,  99294.559,    88.841,   -26.042,     1.077,   127.550, 2, 5.486E-04, -1.00,   2,  2.372E-03,  1.323E-04,  9.479E-14,  2.354E-14,  2.495E+02,  6.195E+01, 255
2019-160T23:17:15.893,   1, 180,   1,    60,   4,          0,     41.614,  99294.559,    88.843,   -26.041,     1.077,   126.945, 2, 5.486E-04, -1.00,   2,  2.491E-03,  1.332E-04,  1.729E-13,  2.409E-14,  4.333E+02,  6.036E+01, 255
2019-160T23:18:15.894,   1, 180,   1,    60,   4,          0,     41.614,  99294.559,    88.845,   -26.041,     1.077,   126.341, 2, 5.486E-04, -1.00,   2,  2.362E-03,  1.325E-04,  5.665E-14,  2.377E-14,  1.497E+02,  6.279E+01, 255
